[[{"header":{"parameterUnit":"m.s-1","parameterCategory":1,"la1":30.2991,"la2":30.254,"lo1":-89.0895,"lo2":-89.0444,"dy":0.0017,"dx":0.0017,"nx":28,"ny":28,"refTime":"2023-03-30T15:00:00:Z","depth":0,"parameterNumber":2,"parameterNumberName":"U-component_of_WINDS"},"data":[0,0,0,0,0,0,0,0,0,0,0,0,0,0,0,0,0,0,0,0,0,0,0,0,0,0,0,0,0,0,0,0,0,0,0,0,0,0,0,0,0,0,0,0,0,0,0,0,0,0,0,0,0,0,0,0,0,0,-1.735,-1.735,0,-1.7384,-1.7384,-1.7385,-1.7301,-1.7298,-1.7296,-1.7293,-1.7331,-1.7335,-1.7338,0,0,0,0,0,0,0,0,0,0,0,0,0,-1.7215,-1.7218,-1.735,-1.735,-1.7351,-1.7384,-1.7384,-1.7385,-1.7302,-1.7298,-1.7295,-1.7292,-1.733,-1.7334,-1.7338,0,0,0,0,0,0,0,0,0,0,0,0,0,-1.7264,-1.7219,-1.735,-1.7313,-1.731,-1.7384,-1.7384,-1.7385,-1.7302,-1.7298,-1.7294,-1.7291,-1.7329,-1.7334,-1.7339,-1.7451,0,0,-1.7355,-1.7357,0,0,0,0,0,0,0,0,-1.7261,-1.7269,-1.7318,-1.7316,-1.7312,-1.7334,-1.7351,-1.7407,-1.7303,-1.7305,-1.7293,-1.7289,-1.7336,-1.734,-1.7355,-1.7453,-1.7454,-1.7355,-1.7359,-1.7361,-1.7362,0,0,0,0,0,0,0,-1.7258,-1.7267,-1.7363,-1.7319,-1.7315,-1.7296,-1.7298,-1.7361,-1.7342,-1.7305,-1.7299,-1.7304,-1.7333,-1.735,-1.7356,-1.7455,-1.7355,-1.736,-1.7363,-1.7365,-1.7646,-1.765,0,0,0,0,0,0,-1.7259,-1.7265,-1.7362,-1.7364,-1.7276,-1.7301,-1.7304,-1.7331,-1.7341,-1.7339,-1.7307,-1.73,-1.7343,-1.735,-1.7357,-1.7489,-1.7361,-1.7366,-1.7369,-1.7642,-1.7647,-1.7652,0,0,0,0,0,0,-1.7256,-1.7268,-1.7361,-1.7313,-1.7323,-1.7308,-1.7339,-1.7334,-1.7351,-1.7343,-1.734,-1.7328,-1.7341,-1.7349,-1.7428,-1.7489,-1.7368,-1.7373,-1.7637,-1.7643,-1.7649,-1.7754,0,0,0,0,0,0,-1.7253,-1.7268,-1.731,-1.7314,-1.7326,-1.7431,-1.7343,-1.7338,-1.736,-1.735,-1.7362,-1.736,-1.7338,-1.7421,-1.7433,-1.7494,-1.7377,-1.7631,-1.764,-1.7647,-1.7745,-1.7764,-1.7779,0,0,0,0,0,-1.7248,-1.7338,-1.7312,-1.7324,-1.7378,-1.7435,-1.7442,-1.7414,-1.7365,-1.7407,-1.7402,-1.736,-1.748,-1.7429,-1.7443,-1.7506,-1.7627,-1.7637,-1.7647,-1.7738,-1.776,-1.7779,0,0,0,0,0,0,-1.7342,-1.7338,-1.7309,-1.7403,-1.742,-1.7421,-1.7473,-1.7438,-1.747,-1.746,-1.7425,-1.7428,-1.7514,-1.7517,-1.7461,-1.7615,-1.7545,-1.7558,-1.761,-1.7631,-1.7648,-1.7646,-1.7381,0,0,0,0,0,-1.7374,-1.742,-1.7414,-1.7498,-1.7507,-1.7489,-1.7513,-1.749,-1.7506,-1.7513,-1.7514,-1.7532,-1.7574,-1.7602,-1.764,-1.7745,-1.7747,-1.7795,-1.7812,-1.7826,-1.7838,-1.7895,-1.7917,-1.7684,-1.7684,-1.7683,0,0,-1.744,-1.7443,-1.7475,-1.7517,-1.7527,-1.7576,-1.7496,-1.7551,-1.7588,-1.7522,-1.7596,-1.7597,-1.7615,-1.7708,-1.7748,-1.7713,-1.7902,-1.7838,-1.7849,-1.7854,-1.7907,-1.7929,-1.7949,-1.769,-1.7689,-1.7688,0,0,-1.7586,-1.7592,-1.7663,-1.7675,-1.7691,-1.7678,-1.7695,-1.7701,-1.7699,-1.7773,-1.7725,-1.7768,-1.784,-1.7855,-1.7873,-1.8024,-1.7986,-1.8037,-1.8126,-1.8182,-1.82,-1.8216,-1.8272,-1.8292,-1.8049,-1.8049,-1.8049,0,-1.7667,-1.7738,-1.7705,-1.7764,-1.7784,-1.7725,-1.7797,-1.781,-1.7839,-1.7854,-1.7814,-1.7904,-1.7912,-1.8008,-1.8044,-1.806,-1.8079,-1.8036,-1.82,-1.8216,-1.823,-1.8283,-1.8304,-1.8055,-1.8054,-1.8054,-1.8053,0,-1.7837,-1.7888,-1.7943,-1.7971,-1.7997,-1.8063,-1.804,-1.807,-1.8045,-1.8037,-1.8113,-1.812,-1.8159,-1.8179,-1.8155,-1.8272,-1.825,-1.8206,-1.8135,-1.8259,-1.8308,-1.8328,-1.8064,-1.8062,-1.806,-1.8058,0,0,-1.8045,-1.8053,-1.8074,-1.8086,-1.8099,-1.8138,-1.8201,-1.8237,-1.8265,-1.8286,-1.8339,-1.8402,-1.836,-1.838,-1.8357,-1.8405,-1.8527,-1.8355,-1.8355,-1.8388,-1.8657,-1.8692,-1.8716,-1.85,-1.8504,-1.8507,-1.8656,0,-1.8191,-1.8298,-1.8269,-1.8377,-1.8424,-1.8368,-1.8423,-1.8437,-1.8431,-1.847,-1.8463,-1.8509,-1.845,-1.8461,-1.8507,-1.8502,-1.858,-1.8491,-1.8551,-1.8554,-1.855,-1.8741,-1.8778,-1.8919,-1.8675,-1.8678,-1.868,0,-1.8375,-1.8403,-1.8515,-1.852,-1.8539,-1.8589,-1.862,-1.8658,-1.8673,-1.8665,-1.8687,-1.8654,-1.8717,-1.8644,-1.8731,-1.8671,-1.8694,-1.8695,-1.87,-1.8706,-1.8626,-1.8755,-1.8963,-1.8985,-1.871,-1.8707,-1.8705,0,-1.8518,-1.8583,-1.8659,-1.867,-1.8678,-1.8715,-1.872,-1.8731,-1.8755,-1.8783,-1.8798,-1.8833,-1.8853,-1.8882,-1.886,-1.8808,-1.8951,-1.8876,-1.8947,-1.8948,-1.8982,-1.898,-1.9199,-1.8993,-1.8993,-1.8992,-1.8992,0,-1.8685,-1.8756,-1.8723,-1.877,-1.8848,-1.8814,-1.8893,-1.8892,-1.8902,-1.8948,-1.8902,-1.8946,-1.8913,-1.8955,-1.8938,-1.9014,-1.9023,-1.9019,-1.9014,-1.9024,-1.9025,-1.904,-1.9031,-1.8998,-1.8997,-1.8996,-1.8995,0,-1.8859,-1.8839,-1.8918,-1.8918,-1.892,-1.8978,-1.8979,-1.9023,-1.9012,-1.9071,-1.9083,-1.9068,-1.9115,-1.9094,-1.9144,-1.9133,-1.923,-1.9211,-1.9225,-1.9221,-1.9294,-1.9289,-1.9532,-1.9563,-1.9336,-1.9338,-1.934,0,-1.8968,-1.9021,-1.9027,-1.9054,-1.9062,-1.9106,-1.913,-1.9099,-1.9126,-1.9148,-1.9189,-1.9232,-1.9265,-1.9343,-1.9336,-1.9374,-1.9357,-1.944,-1.9363,-1.9372,-1.9361,-1.9359,-1.9365,-1.9456,-1.9459,-1.9461,-1.9463,0,-1.9164,-1.9151,-1.9187,-1.922,-1.925,-1.9275,-1.9296,-1.9321,-1.929,-1.9323,-1.937,-1.9396,-1.9446,-1.949,-1.9523,-1.9529,-1.9492,-1.9486,-1.9505,-1.9518,-1.9524,-1.9524,-1.927,-1.9482,-1.948,-1.9478,-1.9477,-1.9477,-1.9309,-1.9355,-1.9366,-1.9408,-1.942,-1.944,-1.9481,-1.9476,-1.9514,-1.9552,-1.9531,-1.9586,-1.96,-1.9641,-1.9652,-1.9696,-1.9664,-1.9691,-1.9698,-1.9706,-1.9716,-1.9515,-1.9702,-1.9701,-1.97,-1.97,-1.97,0,-1.9505,-1.9509,-1.9547,-1.9577,-1.9611,-1.957,-1.9591,-1.9622,-1.9671,-1.9687,-1.972,-1.9774,-1.9816,-1.9813,-1.9851,-1.9887,-1.9871,-1.9898,-1.9897,-1.9899,-1.9742,-1.9722,-1.9911,-1.9911,-1.9911,-1.9911,-1.9911,-1.9911,-1.961,-1.9685,-1.9673,-1.9754,-1.9757,-1.981,-1.9826,-1.9845,-1.9857,-1.992,-1.9954,-1.9951,-1.9959,-1.9998,-2.0035,-2.0033,-2.005,-2.0085,-2.0077,-1.9931,-1.991,-1.989,-1.9872,-2.0088,-2.0089,-2.023,-2.0232,-2.0233]},{"header":{"parameterUnit":"m.s-1","parameterCategory":1,"la1":30.2991,"la2":30.254,"lo1":-89.0895,"lo2":-89.0444,"dy":0.0017,"dx":0.0017,"nx":28,"ny":28,"refTime":"2023-03-30T15:00:00:Z","depth":0,"parameterNumber":3,"parameterNumberName":"V-component_of_WINDS"},"data":[0,0,0,0,0,0,0,0,0,0,0,0,0,0,0,0,0,0,0,0,0,0,0,0,0,0,0,0,0,0,0,0,0,0,0,0,0,0,0,0,0,0,0,0,0,0,0,0,0,0,0,0,0,0,0,0,0,0,-2.0022,-2.0022,0,-2.0046,-2.0046,-2.0046,-2.0067,-2.0067,-2.0068,-2.0068,-2.0091,-2.0091,-2.0091,0,0,0,0,0,0,0,0,0,0,0,0,0,-1.9992,-1.9993,-2.0022,-2.0022,-2.0022,-2.0046,-2.0046,-2.0046,-2.0067,-2.0067,-2.0068,-2.0068,-2.009,-2.0091,-2.0091,0,0,0,0,0,0,0,0,0,0,0,0,0,-2.0009,-1.9993,-2.0022,-2.0036,-2.0037,-2.0046,-2.0046,-2.0046,-2.0067,-2.0067,-2.0068,-2.0068,-2.009,-2.0091,-2.0091,-2.0087,0,0,-2.0093,-2.0093,0,0,0,0,0,0,0,0,-2.0008,-2.001,-2.0033,-2.0035,-2.0036,-2.0054,-2.0044,-2.006,-2.0067,-2.0056,-2.0068,-2.0068,-2.0078,-2.008,-2.0083,-2.0088,-2.0089,-2.0093,-2.0093,-2.0094,-2.0094,0,0,0,0,0,0,0,-2.0007,-2.0009,-2.0031,-2.0034,-2.0035,-2.004,-2.0043,-2.0047,-2.0064,-2.0057,-2.0058,-2.0061,-2.0079,-2.0083,-2.0084,-2.009,-2.0093,-2.0094,-2.0094,-2.0094,-2.0092,-2.0091,0,0,0,0,0,0,-2.0004,-2.0008,-2.003,-2.0032,-2.0023,-2.004,-2.0043,-2.0048,-2.0064,-2.0067,-2.0061,-2.0062,-2.0081,-2.0083,-2.0085,-2.008,-2.0094,-2.0094,-2.0095,-2.0092,-2.0092,-2.0091,0,0,0,0,0,0,-2.0003,-2.0006,-2.0029,-2.0021,-2.0024,-2.004,-2.0045,-2.0048,-2.0052,-2.0067,-2.007,-2.0061,-2.0082,-2.0084,-2.0086,-2.0081,-2.0095,-2.0095,-2.0093,-2.0092,-2.0091,-2.0071,0,0,0,0,0,0,-2.0002,-2.0005,-2.0005,-2.002,-2.0024,-2.0031,-2.0045,-2.0048,-2.0053,-2.0055,-2.0069,-2.0071,-2.0082,-2.0085,-2.0087,-2.0082,-2.0095,-2.0093,-2.0092,-2.0092,-2.0073,-2.007,-2.0068,0,0,0,0,0,-2.0001,-1.9998,-2.0005,-2.0007,-2.0024,-2.0031,-2.0033,-2.0046,-2.0053,-2.0051,-2.0061,-2.0071,-2.0082,-2.0086,-2.0087,-2.0083,-2.0093,-2.0093,-2.0092,-2.0074,-2.0071,-2.0068,0,0,0,0,0,0,-1.9981,-2.0,-2.0008,-2.001,-2.0018,-2.0035,-2.0034,-2.0043,-2.005,-2.0051,-2.0066,-2.0069,-2.007,-2.0077,-2.0081,-2.0079,-2.0089,-2.0088,-2.0074,-2.0072,-2.007,-2.0067,-2.0096,0,0,0,0,0,-1.9977,-1.9981,-1.9998,-1.9998,-2.0002,-2.0017,-2.0021,-2.003,-2.0039,-2.0043,-2.0053,-2.0062,-2.0067,-2.007,-2.0076,-2.0074,-2.0077,-2.0072,-2.0069,-2.0068,-2.0066,-2.0065,-2.0062,-2.0088,-2.0088,-2.0088,0,0,-1.9968,-1.9979,-1.9981,-1.9994,-2.0002,-2.0006,-2.002,-2.0024,-2.0026,-2.0044,-2.0046,-2.0054,-2.0064,-2.0064,-2.0065,-2.007,-2.006,-2.0066,-2.0065,-2.0065,-2.0064,-2.0061,-2.0059,-2.0088,-2.0088,-2.0088,0,0,-1.9953,-1.9963,-1.9963,-1.9971,-1.9983,-1.9993,-1.9993,-2.0007,-2.0013,-2.0016,-2.0029,-2.0032,-2.0041,-2.0048,-2.0052,-2.004,-2.0048,-2.0041,-2.0029,-2.0027,-2.0025,-2.0023,-2.0018,-2.0016,-2.004,-2.004,-2.004,0,-1.994,-1.9947,-1.9962,-1.9965,-1.997,-1.9986,-1.9986,-1.9992,-2.0005,-2.0008,-2.0014,-2.0025,-2.0033,-2.0034,-2.0031,-2.0035,-2.0034,-2.0039,-2.0024,-2.0023,-2.0021,-2.0016,-2.0014,-2.0039,-2.0039,-2.0039,-2.0039,0,-1.993,-1.9935,-1.9934,-1.9946,-1.9951,-1.9952,-1.9966,-1.9969,-1.9978,-1.9987,-1.9989,-2.0,-2.0007,-2.0009,-2.0017,-2.0011,-2.0013,-2.0022,-2.0032,-2.0018,-2.0013,-2.0011,-2.0038,-2.0038,-2.0038,-2.0039,0,0,-1.9903,-1.9924,-1.9923,-1.9928,-1.9942,-1.9946,-1.9947,-1.9955,-1.9957,-1.9965,-1.9966,-1.9973,-1.9981,-1.9986,-1.9995,-1.9994,-1.9982,-2.0002,-2.0003,-1.9997,-1.9974,-1.9966,-1.9964,-1.9988,-1.9988,-1.9987,-1.9972,0,-1.989,-1.9894,-1.9908,-1.9907,-1.9911,-1.9926,-1.9928,-1.9936,-1.9944,-1.9948,-1.9957,-1.9961,-1.9972,-1.9975,-1.9974,-1.9983,-1.9977,-1.9985,-1.9988,-1.9988,-1.9983,-1.9961,-1.9954,-1.9939,-1.9971,-1.997,-1.997,0,-1.9875,-1.9883,-1.9883,-1.9896,-1.9898,-1.9899,-1.9907,-1.9911,-1.992,-1.9926,-1.9932,-1.9942,-1.9944,-1.9954,-1.9955,-1.996,-1.9963,-1.9967,-1.9967,-1.9967,-1.9977,-1.9959,-1.9935,-1.9932,-1.9968,-1.9968,-1.9968,0,-1.9854,-1.9864,-1.9865,-1.987,-1.9885,-1.9885,-1.9892,-1.9902,-1.9905,-1.9912,-1.9914,-1.9921,-1.9924,-1.9929,-1.994,-1.9947,-1.994,-1.9951,-1.9944,-1.9944,-1.9941,-1.9941,-1.9915,-1.9945,-1.9945,-1.9945,-1.9945,0,-1.9837,-1.9837,-1.9856,-1.9856,-1.9856,-1.987,-1.9869,-1.9877,-1.9885,-1.9887,-1.9901,-1.9902,-1.9918,-1.9921,-1.993,-1.9929,-1.9931,-1.9935,-1.9937,-1.9933,-1.9932,-1.9934,-1.9934,-1.9944,-1.9944,-1.9944,-1.9945,0,-1.9813,-1.9826,-1.9828,-1.9843,-1.9846,-1.9845,-1.9857,-1.9858,-1.9867,-1.9869,-1.987,-1.9884,-1.9888,-1.9901,-1.9908,-1.9914,-1.9909,-1.9915,-1.9906,-1.9907,-1.9899,-1.9899,-1.9872,-1.9869,-1.9902,-1.9901,-1.9901,0,-1.9801,-1.9801,-1.9815,-1.9817,-1.9823,-1.9827,-1.9831,-1.9845,-1.9848,-1.9858,-1.9857,-1.9863,-1.9867,-1.9872,-1.9883,-1.9888,-1.9892,-1.9883,-1.9893,-1.9889,-1.9891,-1.989,-1.9889,-1.988,-1.988,-1.9879,-1.9879,0,-1.9777,-1.9784,-1.9789,-1.9796,-1.9799,-1.9806,-1.9812,-1.9813,-1.9829,-1.9832,-1.9836,-1.984,-1.9847,-1.9851,-1.9858,-1.9864,-1.9873,-1.9876,-1.9874,-1.9869,-1.9863,-1.9865,-1.9898,-1.9876,-1.9876,-1.9876,-1.9877,-1.9877,-1.9758,-1.9758,-1.9768,-1.9773,-1.9779,-1.9785,-1.9786,-1.9795,-1.9799,-1.9806,-1.9814,-1.9817,-1.9826,-1.9836,-1.9841,-1.9843,-1.9848,-1.9846,-1.9845,-1.9844,-1.9842,-1.9864,-1.9844,-1.9844,-1.9845,-1.9845,-1.9845,0,-1.9734,-1.9741,-1.9745,-1.9754,-1.9758,-1.9768,-1.9775,-1.9777,-1.978,-1.9787,-1.9791,-1.9795,-1.98,-1.981,-1.9815,-1.9815,-1.9819,-1.9815,-1.9815,-1.9815,-1.9837,-1.9838,-1.9811,-1.9811,-1.9811,-1.9811,-1.9811,-1.9811,-1.9722,-1.9722,-1.9729,-1.9732,-1.9739,-1.9742,-1.9746,-1.9751,-1.9757,-1.9761,-1.9764,-1.9772,-1.978,-1.9785,-1.9789,-1.9792,-1.9793,-1.9787,-1.9791,-1.9811,-1.9814,-1.9817,-1.9817,-1.9787,-1.9787,-1.9769,-1.9769,-1.9769]}]]